{"data":{"norad_id":57475,"intl_designator":"2023-107U","name":"STARLINK-30155","alt_names":[],"object_type":"PAYLOAD","status":"ACTIVE","operator":null,"country":"US","launch_date":"2023-07-28","launch_site_code":"AFETR","launch_vehicle":null,"mission":null,"orbit_class":"UNKNOWN","rcs_meters":null,"size_class":null,"mass_kg":null,"dimensions":null,"purposes":["comms"],"wikipedia_slug":null,"has_3d_model":false,"image_url":null,"decayed_at":null,"tle_current":{"epoch":"2026-09-20T10:14:44.858112Z","epoch_age_seconds":133995,"freshness":"FRESH","line1":"1 57475U 23107U   26263.42690808 -.00000140  00000+0  44311-5 0  9990","line2":"2 57475  43.0024 315.9873 0001602 267.3327  92.7341 15.27575350174938","mean_motion":15.2757535,"eccentricity":0.0001602,"inclination_deg":43.0024,"raan_deg":315.9873,"arg_perigee_deg":267.3327,"mean_anomaly_deg":92.7341,"bstar":4.4311e-6,"rev_number":17493,"period_min":94.267035665376,"perigee_km":481.96385560462,"apogee_km":484.16218409098,"semimajor_km":6861.2000198478,"source":"CELESTRAK","updated_at":"2026-09-21T09:00:33.631253Z"}}}